This is the latest recevied weather packets stored in our database for station/object W4KAB. If no packets are shown the sender has not sent any weather packets the latest 10 day(s).
| Time | Temp. | Humidity | Pressure | Rain* | Wind** | Luminosity | Snow |
|---|---|---|---|---|---|---|---|
| 1777398192 | 14.44° C | 91% | 1021.2 hPa | 0 mm | - | 78 W/m² | - |
| 1777397889 | 14.44° C | 91% | 1021.3 hPa | 0 mm | - | 110 W/m² | - |
| 1777397584 | 14.44° C | 91% | 1021.2 hPa | 0 mm | - | 59 W/m² | - |
| 1777397281 | 14.44° C | 92% | 1021.4 hPa | 0 mm | - | 78 W/m² | - |
| 1777396978 | 14.44° C | 92% | 1021.6 hPa | 0 mm | - | 70 W/m² | - |
| 1777396675 | 14.44° C | 92% | 1021.4 hPa | 0 mm | - | 69 W/m² | - |
| 1777396371 | 14.44° C | 92% | 1021.7 hPa | 0 mm | - | 69 W/m² | - |
| 1777396068 | 14.44° C | 91% | 1021.4 hPa | 0 mm | - | 85 W/m² | - |
| 1777395764 | 13.89° C | 92% | 1021.6 hPa | 0 mm | - | 72 W/m² | - |
| 1777395459 | 13.89° C | 93% | 1021.5 hPa | 0 mm | - | 92 W/m² | - |
| 1777395157 | 13.89° C | 93% | 1021.6 hPa | 0 mm | - | 80 W/m² | - |
| 1777394854 | 13.89° C | 93% | 1022.2 hPa | 0 mm | - | 54 W/m² | - |
| 1777394549 | 13.89° C | 92% | 1022.3 hPa | 0 mm | - | 60 W/m² | - |
| 1777394246 | 13.89° C | 92% | 1022.2 hPa | 0 mm | - | 48 W/m² | - |
| 1777393942 | 13.89° C | 93% | 1022.3 hPa | 0 mm | - | 85 W/m² | - |
| 1777393641 | 13.89° C | 94% | 1022.3 hPa | 0 mm | - | 79 W/m² | - |
| 1777393337 | 13.89° C | 93% | 1022.2 hPa | 0 mm | - | 92 W/m² | - |
| 1777393034 | 13.89° C | 94% | 1022.4 hPa | 0 mm | - | 121 W/m² | - |
| 1777392730 | 13.89° C | 94% | 1022.6 hPa | 0 mm | - | 70 W/m² | - |
| 1777392426 | 13.89° C | 94% | 1022.5 hPa | 0 mm | - | 80 W/m² | - |
| 1777392121 | 13.89° C | 94% | 1022.5 hPa | 0 mm | - | 62 W/m² | - |
| 1777391817 | 13.89° C | 94% | 1022.4 hPa | 0 mm | - | 57 W/m² | - |
| 1777391513 | 13.89° C | 93% | 1022.3 hPa | 0 mm | - | 57 W/m² | - |
| 1777391209 | 13.89° C | 94% | 1022.2 hPa | 0 mm | - | 57 W/m² | - |
| 1777390905 | 13.33° C | 95% | 1022.3 hPa | 0 mm | - | 86 W/m² | - |
* Rain latest hour (hover to see other rain measurements)
** Current wind speed in m/s (hover to see current wind gust speed)